User: anonymous   Login
Location: Unspecified
(0.0000°N, 0.0000°E)
Time: 19:23:33
(UTC+00:00)
Language:

ANTELSAT - Orbit

View from above orbital plane
View from above orbital plane
View from above satellite
View from above satellite

Ground track
Ground track

The orbit data is extracted from the following two-line orbital elements,

1 40034U 14033AA  18140.23457874  .00000190  00000-0  35985-4 0  9990
2 40034  97.8149  17.8874 0057487 288.7685  70.7293 14.73915099210561
Epoch (UTC): 20 May 2018 05:37:47
Eccentricity: 0.0057487
inclination: 97.8149°
perigee height: 608 km
apogee height: 689 km
right ascension of ascending node: 17.8874°
argument of perigee: 288.7685°
revolutions per day: 14.73915099
mean anomaly at epoch: 70.7293°
orbit number at epoch: 21056

The dashed part of the orbit path shows where the satellite is in the earth's shadow,  

DLR